IBE0274 MUHA-MDSD

Flight info

Callsign IBE0274
Flight time 1h 50m
Altitude 41000
Route COTIL UM348 MEDKO M348 KNSLY Y353 ALBBE UM348 DATUN UW39 SGO UW24 KODIX KODIX2H
Aircraft A332/H-SDE3GHIJ2J3J5M1RVWXY/LB2D1

Departure

Time 2026-05-07 13:15
Airport José Martí International Airport (MUHA)

Arrival

Time 2026-05-07 15:05
Airport Las Américas International Airport (MDSD)
Time Latitude Longitude Altitude Speed Heading
2026-05-07 12:03 22.99610 -82.40703 226 ft 0 kts 29°
2026-05-07 13:02 22.99609 -82.40703 220 ft 2 kts 29°
2026-05-07 13:03 22.99587 -82.40717 228 ft 4 kts 36°
2026-05-07 13:03 22.99568 -82.40737 222 ft 4 kts 65°
2026-05-07 13:03 22.99566 -82.40754 223 ft 2 kts 144°
2026-05-07 13:03 22.99567 -82.40755 223 ft 5 kts 145°
2026-05-07 13:07 22.99567 -82.40754 223 ft 0 kts 145°
2026-05-07 13:07 22.99542 -82.40735 223 ft 7 kts 144°
2026-05-07 13:08 22.99494 -82.40702 225 ft 9 kts 160°
2026-05-07 13:08 22.99451 -82.40730 222 ft 8 kts 228°
2026-05-07 13:08 22.99412 -82.40786 226 ft 10 kts 236°
2026-05-07 13:08 22.99371 -82.40843 225 ft 4 kts 207°
2026-05-07 13:09 22.99321 -82.40827 220 ft 12 kts 152°
2026-05-07 13:09 22.99250 -82.40776 222 ft 10 kts 155°
2026-05-07 13:09 22.99197 -82.40803 225 ft 9 kts 226°
2026-05-07 13:09 22.99136 -82.40894 222 ft 20 kts 234°
2026-05-07 13:10 22.99052 -82.41021 228 ft 22 kts 234°
2026-05-07 13:10 22.98961 -82.41158 229 ft 23 kts 234°
2026-05-07 13:10 22.98865 -82.41304 227 ft 24 kts 234°
2026-05-07 13:10 22.98763 -82.41457 229 ft 26 kts 234°
2026-05-07 13:11 22.98655 -82.41619 227 ft 27 kts 234°
2026-05-07 13:11 22.98544 -82.41787 221 ft 27 kts 234°
2026-05-07 13:11 22.98470 -82.41898 223 ft 28 kts 234°
2026-05-07 13:11 22.98368 -82.42051 227 ft 24 kts 233°
2026-05-07 13:12 22.98236 -82.42252 225 ft 26 kts 234°
2026-05-07 13:12 22.98129 -82.42413 226 ft 26 kts 234°
2026-05-07 13:12 22.98052 -82.42530 222 ft 16 kts 234°
2026-05-07 13:12 22.98001 -82.42577 225 ft 8 kts 178°
2026-05-07 13:13 22.97953 -82.42546 220 ft 5 kts 145°
2026-05-07 13:13 22.97947 -82.42541 220 ft 1 kts 144°
2026-05-07 13:13 22.97936 -82.42532 226 ft 3 kts 143°
2026-05-07 13:13 22.97898 -82.42501 229 ft 9 kts 143°
2026-05-07 13:14 22.97891 -82.42451 224 ft 7 kts 61°
2026-05-07 13:14 22.97949 -82.42361 230 ft 35 kts 54°
2026-05-07 13:14 22.98229 -82.41940 225 ft 101 kts 54°
2026-05-07 13:14 22.98747 -82.41159 229 ft 152 kts 54°
2026-05-07 13:15 22.99359 -82.40180 767 ft 159 kts 56°
2026-05-07 13:15 22.99981 -82.39180 1476 ft 160 kts 56°
2026-05-07 13:15 23.00691 -82.38188 1774 ft 175 kts 52°
2026-05-07 13:15 23.01480 -82.37125 2102 ft 185 kts 52°
2026-05-07 13:16 23.02267 -82.36015 2509 ft 191 kts 55°
2026-05-07 13:16 23.03054 -82.34814 2884 ft 200 kts 57°
2026-05-07 13:16 23.03834 -82.33521 3265 ft 209 kts 59°
2026-05-07 13:16 23.04608 -82.32150 3665 ft 217 kts 61°
2026-05-07 13:17 23.05510 -82.30775 4012 ft 232 kts 55°
2026-05-07 13:17 23.06520 -82.29323 4254 ft 251 kts 55°
2026-05-07 13:17 23.07606 -82.27737 4508 ft 272 kts 56°
2026-05-07 13:17 23.08743 -82.26053 5047 ft 280 kts 55°
2026-05-07 13:18 23.09890 -82.24336 5724 ft 282 kts 55°
2026-05-07 13:18 23.11047 -82.22595 6385 ft 285 kts 57°
2026-05-07 13:18 23.12204 -82.20850 7115 ft 284 kts 56°
2026-05-07 13:18 23.13351 -82.19119 7913 ft 281 kts 54°
2026-05-07 13:19 23.14416 -82.17355 8695 ft 279 kts 62°
2026-05-07 13:19 23.15213 -82.15440 9469 ft 278 kts 68°
2026-05-07 13:19 23.15836 -82.13444 10122 ft 282 kts 75°
2026-05-07 13:19 23.16047 -82.11274 10409 ft 300 kts 89°
2026-05-07 13:20 23.15891 -82.08941 10647 ft 317 kts 95°
2026-05-07 13:20 23.15527 -82.06517 10868 ft 333 kts 99°
2026-05-07 13:20 23.15037 -82.04006 11104 ft 345 kts 101°
2026-05-07 13:20 23.14489 -82.01440 11511 ft 351 kts 101°
2026-05-07 13:21 23.13931 -81.98849 11993 ft 354 kts 101°
2026-05-07 13:21 23.13382 -81.96235 12477 ft 356 kts 100°
2026-05-07 13:21 23.12843 -81.93597 12966 ft 359 kts 100°
2026-05-07 13:21 23.12314 -81.90946 13495 ft 360 kts 99°
2026-05-07 13:22 23.11790 -81.88279 13955 ft 362 kts 99°
2026-05-07 13:22 23.11266 -81.85587 14341 ft 366 kts 99°
2026-05-07 13:22 23.10740 -81.82877 14730 ft 369 kts 99°
2026-05-07 13:22 23.10209 -81.80141 15121 ft 371 kts 99°
2026-05-07 13:23 23.09672 -81.77385 15483 ft 375 kts 99°
2026-05-07 13:23 23.09129 -81.74604 15857 ft 378 kts 99°
2026-05-07 13:23 23.08581 -81.71805 16230 ft 380 kts 99°
2026-05-07 13:23 23.08028 -81.68985 16613 ft 383 kts 99°
2026-05-07 13:24 23.07471 -81.66145 16960 ft 386 kts 99°
2026-05-07 13:24 23.06916 -81.63320 17302 ft 389 kts 99°
2026-05-07 13:24 23.06349 -81.60438 17662 ft 391 kts 99°
2026-05-07 13:24 23.05778 -81.57539 18018 ft 394 kts 99°
2026-05-07 13:25 23.05203 -81.54622 18355 ft 396 kts 99°
2026-05-07 13:25 23.04624 -81.51686 18637 ft 399 kts 99°
2026-05-07 13:25 23.04041 -81.48736 18921 ft 401 kts 99°
2026-05-07 13:25 23.03454 -81.45768 19227 ft 403 kts 99°
2026-05-07 13:26 23.02864 -81.42789 19525 ft 405 kts 99°
2026-05-07 13:26 23.02271 -81.39793 19801 ft 407 kts 99°
2026-05-07 13:26 23.01675 -81.36787 20081 ft 409 kts 99°
2026-05-07 13:26 23.01074 -81.33761 20371 ft 411 kts 99°
2026-05-07 13:27 23.00471 -81.30724 20664 ft 412 kts 99°
2026-05-07 13:27 22.99865 -81.27677 20922 ft 415 kts 99°
2026-05-07 13:27 22.99254 -81.24611 21183 ft 416 kts 99°
2026-05-07 13:27 22.98640 -81.21534 21457 ft 418 kts 99°
2026-05-07 13:28 22.98023 -81.18439 21717 ft 420 kts 99°
2026-05-07 13:28 22.97403 -81.15336 21978 ft 422 kts 99°
2026-05-07 13:28 22.96780 -81.12217 22221 ft 424 kts 99°
2026-05-07 13:28 22.96153 -81.09085 22475 ft 426 kts 99°
2026-05-07 13:29 22.95523 -81.05943 22716 ft 428 kts 99°
2026-05-07 13:29 22.94889 -81.02783 22970 ft 429 kts 99°
2026-05-07 13:29 22.94251 -80.99609 23218 ft 431 kts 99°
2026-05-07 13:29 22.93612 -80.96427 23454 ft 433 kts 100°
2026-05-07 13:30 22.92968 -80.93231 23669 ft 435 kts 100°
2026-05-07 13:30 22.92322 -80.90021 23858 ft 437 kts 99°
2026-05-07 13:30 22.91671 -80.86796 24039 ft 439 kts 99°
2026-05-07 13:30 22.91018 -80.83559 24225 ft 440 kts 99°
2026-05-07 13:31 22.90363 -80.80316 24408 ft 442 kts 99°
2026-05-07 13:31 22.89701 -80.77047 24601 ft 443 kts 100°
2026-05-07 13:31 22.89039 -80.73779 24792 ft 445 kts 100°
2026-05-07 13:31 22.88382 -80.70538 24976 ft 446 kts 100°
2026-05-07 13:32 22.87713 -80.67246 25158 ft 448 kts 100°
2026-05-07 13:32 22.87042 -80.63940 25343 ft 450 kts 100°
2026-05-07 13:32 22.86367 -80.60627 25530 ft 451 kts 100°
2026-05-07 13:32 22.85689 -80.57299 25717 ft 453 kts 100°
2026-05-07 13:33 22.85009 -80.53962 25901 ft 454 kts 100°
2026-05-07 13:33 22.84325 -80.50614 26112 ft 455 kts 100°
2026-05-07 13:33 22.83640 -80.47258 26299 ft 457 kts 100°
2026-05-07 13:33 22.82952 -80.43895 26480 ft 458 kts 100°
2026-05-07 13:34 22.82259 -80.40516 26666 ft 460 kts 100°
2026-05-07 13:34 22.80866 -80.33725 27076 ft 462 kts 100°
2026-05-07 13:34 22.80167 -80.30330 27305 ft 462 kts 100°
2026-05-07 13:35 22.79466 -80.26921 27473 ft 464 kts 100°
2026-05-07 13:35 22.78762 -80.23501 27648 ft 466 kts 100°
2026-05-07 13:35 22.78053 -80.20066 27834 ft 468 kts 100°
2026-05-07 13:35 22.77342 -80.16622 28022 ft 469 kts 100°
2026-05-07 13:36 22.76629 -80.13171 28232 ft 470 kts 100°
2026-05-07 13:36 22.75913 -80.09713 28444 ft 471 kts 100°
2026-05-07 13:36 22.75194 -80.06245 28613 ft 473 kts 100°
2026-05-07 13:36 22.74472 -80.02766 28791 ft 475 kts 100°
2026-05-07 13:37 22.73748 -79.99276 28962 ft 476 kts 100°
2026-05-07 13:37 22.73020 -79.95772 29141 ft 477 kts 100°
2026-05-07 13:37 22.72289 -79.92259 29296 ft 479 kts 100°
2026-05-07 13:37 22.71555 -79.88737 29475 ft 480 kts 100°
2026-05-07 13:38 22.70817 -79.85201 29640 ft 482 kts 101°
2026-05-07 13:38 22.70077 -79.81656 29818 ft 483 kts 101°
2026-05-07 13:38 22.69334 -79.78103 29995 ft 484 kts 100°
2026-05-07 13:38 22.68590 -79.74550 30188 ft 485 kts 100°
2026-05-07 13:39 22.67843 -79.70983 30303 ft 486 kts 100°
2026-05-07 13:39 22.67093 -79.67411 30430 ft 488 kts 100°
2026-05-07 13:39 22.66340 -79.63823 30559 ft 489 kts 100°
2026-05-07 13:39 22.65584 -79.60228 30681 ft 490 kts 100°
2026-05-07 13:40 22.64826 -79.56627 30822 ft 492 kts 100°
2026-05-07 13:40 22.64063 -79.53010 30928 ft 493 kts 100°
2026-05-07 13:40 22.63298 -79.49384 31056 ft 495 kts 100°
2026-05-07 13:40 22.62531 -79.45754 31188 ft 496 kts 100°
2026-05-07 13:41 22.61760 -79.42110 31338 ft 497 kts 100°
2026-05-07 13:41 22.60986 -79.38459 31521 ft 498 kts 100°
2026-05-07 13:41 22.60210 -79.34799 31694 ft 500 kts 100°
2026-05-07 13:41 22.59431 -79.31132 31936 ft 500 kts 100°
2026-05-07 13:42 22.58651 -79.27464 32218 ft 500 kts 100°
2026-05-07 13:42 22.57870 -79.23793 32499 ft 500 kts 100°
2026-05-07 13:42 22.57098 -79.20172 32783 ft 501 kts 100°
2026-05-07 13:42 22.56305 -79.16454 33067 ft 501 kts 100°
2026-05-07 13:43 22.55519 -79.12776 33375 ft 502 kts 100°
2026-05-07 13:43 22.54733 -79.09098 33670 ft 502 kts 100°
2026-05-07 13:43 22.53955 -79.05466 33972 ft 502 kts 100°
2026-05-07 13:43 22.53166 -79.01787 34280 ft 502 kts 100°
2026-05-07 13:44 22.52367 -78.98065 34593 ft 501 kts 100°
2026-05-07 13:44 22.51590 -78.94447 34906 ft 500 kts 100°
2026-05-07 13:44 22.50802 -78.90785 35201 ft 500 kts 100°
2026-05-07 13:44 22.50014 -78.87126 35508 ft 499 kts 100°
2026-05-07 13:45 22.49227 -78.83476 35806 ft 499 kts 100°
2026-05-07 13:45 22.48440 -78.79827 36091 ft 498 kts 100°
2026-05-07 13:45 22.47651 -78.76180 36387 ft 498 kts 100°
2026-05-07 13:45 22.46863 -78.72535 36666 ft 498 kts 100°
2026-05-07 13:46 22.46074 -78.68896 36943 ft 497 kts 100°
2026-05-07 13:46 22.45285 -78.65261 37254 ft 496 kts 100°
2026-05-07 13:46 22.44498 -78.61637 37557 ft 495 kts 100°
2026-05-07 13:46 22.43711 -78.58017 37838 ft 495 kts 100°
2026-05-07 13:47 22.42924 -78.54400 38115 ft 494 kts 100°
2026-05-07 13:47 22.42137 -78.50785 38371 ft 494 kts 100°
2026-05-07 13:47 22.41350 -78.47176 38633 ft 493 kts 100°
2026-05-07 13:47 22.40563 -78.43567 38856 ft 493 kts 100°
2026-05-07 13:48 22.39773 -78.39955 39009 ft 494 kts 100°
2026-05-07 13:48 22.38188 -78.32707 39037 ft 497 kts 100°
2026-05-07 13:49 22.36593 -78.25443 39037 ft 497 kts 100°
2026-05-07 13:49 22.34996 -78.18184 39037 ft 497 kts 100°
2026-05-07 13:50 22.33398 -78.10937 39036 ft 495 kts 100°
2026-05-07 13:50 22.31811 -78.03755 39036 ft 495 kts 100°
2026-05-07 13:51 22.30212 -77.96532 39037 ft 494 kts 100°
2026-05-07 13:51 22.28611 -77.89317 39039 ft 494 kts 100°
2026-05-07 13:52 22.27008 -77.82108 39040 ft 494 kts 100°
2026-05-07 13:52 22.25403 -77.74904 39042 ft 494 kts 100°
2026-05-07 13:53 22.23794 -77.67700 39039 ft 494 kts 100°
2026-05-07 13:53 22.22181 -77.60494 39037 ft 494 kts 100°
2026-05-07 13:54 22.20565 -77.53296 39037 ft 493 kts 99°
2026-05-07 13:54 22.18949 -77.46106 39040 ft 493 kts 99°
2026-05-07 13:55 22.17329 -77.38915 39042 ft 493 kts 99°
2026-05-07 13:55 22.15652 -77.31746 39041 ft 495 kts 103°
2026-05-07 13:56 22.13541 -77.24721 39039 ft 496 kts 105°
2026-05-07 13:56 22.11322 -77.17682 39040 ft 496 kts 105°
2026-05-07 13:57 22.09082 -77.10651 39040 ft 496 kts 105°
2026-05-07 13:57 22.06846 -77.03624 39038 ft 496 kts 105°
2026-05-07 13:58 22.04613 -76.96596 39037 ft 496 kts 105°
2026-05-07 13:58 22.02378 -76.89574 39039 ft 496 kts 105°
2026-05-07 13:59 22.00137 -76.82547 39037 ft 496 kts 104°
2026-05-07 13:59 21.97893 -76.75523 39040 ft 496 kts 104°
2026-05-07 14:00 21.95644 -76.68496 39039 ft 496 kts 104°
2026-05-07 14:00 21.93394 -76.61474 39039 ft 496 kts 104°
2026-05-07 14:01 21.91139 -76.54451 39038 ft 496 kts 105°
2026-05-07 14:01 21.88882 -76.47434 39034 ft 496 kts 104°
2026-05-07 14:02 21.87007 -76.41613 39035 ft 494 kts 104°
2026-05-07 14:02 21.84753 -76.34623 39041 ft 494 kts 104°
2026-05-07 14:03 21.82497 -76.27640 39040 ft 494 kts 104°
2026-05-07 14:03 21.80239 -76.20658 39037 ft 494 kts 104°
2026-05-07 14:04 21.77977 -76.13679 39045 ft 494 kts 104°
2026-05-07 14:04 21.75710 -76.06698 39038 ft 494 kts 104°
2026-05-07 14:05 21.73442 -75.99722 39042 ft 494 kts 104°
2026-05-07 14:05 21.71169 -75.92744 39034 ft 494 kts 104°
2026-05-07 14:06 21.68894 -75.85770 39033 ft 494 kts 104°
2026-05-07 14:06 21.66617 -75.78800 39034 ft 494 kts 104°
2026-05-07 14:07 21.64336 -75.71831 39034 ft 494 kts 104°
2026-05-07 14:07 21.62053 -75.64863 39032 ft 494 kts 104°
2026-05-07 14:08 21.59767 -75.57899 39037 ft 494 kts 104°
2026-05-07 14:08 21.57479 -75.50939 39039 ft 494 kts 104°
2026-05-07 14:09 21.55188 -75.43978 39037 ft 494 kts 104°
2026-05-07 14:09 21.52895 -75.37026 39037 ft 494 kts 104°
2026-05-07 14:10 21.50598 -75.30071 39037 ft 494 kts 104°
2026-05-07 14:10 21.48300 -75.23122 39039 ft 494 kts 104°
2026-05-07 14:11 21.45998 -75.16173 39038 ft 494 kts 104°
2026-05-07 14:11 21.43694 -75.09232 39040 ft 493 kts 104°
2026-05-07 14:12 21.41393 -75.02308 39043 ft 492 kts 104°
2026-05-07 14:12 21.39090 -74.95386 39042 ft 493 kts 104°
2026-05-07 14:13 21.36783 -74.88465 39042 ft 493 kts 104°
2026-05-07 14:13 21.34473 -74.81545 39042 ft 493 kts 104°
2026-05-07 14:14 21.32160 -74.74631 39043 ft 492 kts 104°
2026-05-07 14:14 21.29845 -74.67718 39040 ft 492 kts 104°
2026-05-07 14:15 21.27527 -74.60807 39042 ft 493 kts 104°
2026-05-07 14:15 21.25206 -74.53900 39045 ft 493 kts 104°
2026-05-07 14:16 21.22897 -74.47036 39042 ft 493 kts 104°
2026-05-07 14:16 21.20574 -74.40126 39040 ft 492 kts 104°
2026-05-07 14:17 21.18258 -74.33217 39046 ft 492 kts 104°
2026-05-07 14:17 21.15942 -74.26312 39036 ft 492 kts 104°
2026-05-07 14:18 21.13620 -74.19407 39045 ft 493 kts 104°
2026-05-07 14:18 21.11296 -74.12507 39045 ft 493 kts 104°
2026-05-07 14:19 21.08968 -74.05605 39042 ft 493 kts 104°
2026-05-07 14:19 21.06638 -73.98709 39046 ft 493 kts 104°
2026-05-07 14:20 21.04304 -73.91812 39042 ft 493 kts 104°
2026-05-07 14:20 21.01967 -73.84915 39042 ft 493 kts 104°
2026-05-07 14:21 20.99644 -73.78071 39036 ft 492 kts 104°
2026-05-07 14:21 20.97308 -73.71201 39038 ft 491 kts 104°
2026-05-07 14:22 20.94910 -73.64359 39052 ft 492 kts 106°
2026-05-07 14:22 20.92350 -73.57559 39039 ft 493 kts 107°
2026-05-07 14:23 20.89758 -73.50767 39039 ft 493 kts 107°
2026-05-07 14:23 20.87178 -73.43971 39042 ft 493 kts 106°
2026-05-07 14:24 20.84605 -73.37171 39042 ft 493 kts 106°
2026-05-07 14:24 20.82035 -73.30375 39040 ft 493 kts 106°
2026-05-07 14:25 20.79460 -73.23578 39042 ft 494 kts 106°
2026-05-07 14:25 20.76879 -73.16775 39042 ft 494 kts 106°
2026-05-07 14:26 20.74295 -73.09974 39042 ft 494 kts 106°
2026-05-07 14:26 20.71707 -73.03171 39042 ft 494 kts 106°
2026-05-07 14:27 20.69117 -72.96375 39042 ft 494 kts 106°
2026-05-07 14:27 20.66523 -72.89574 39048 ft 495 kts 106°
2026-05-07 14:28 20.63922 -72.82765 39047 ft 495 kts 106°
2026-05-07 14:28 20.61317 -72.75957 39044 ft 495 kts 106°
2026-05-07 14:29 20.58707 -72.69147 39049 ft 495 kts 106°
2026-05-07 14:29 20.56098 -72.62346 39045 ft 495 kts 106°
2026-05-07 14:30 20.53484 -72.55541 39045 ft 496 kts 106°
2026-05-07 14:30 20.50881 -72.48773 39042 ft 496 kts 106°
2026-05-07 14:31 20.48258 -72.41964 39049 ft 497 kts 106°
2026-05-07 14:31 20.45631 -72.35152 39049 ft 496 kts 106°
2026-05-07 14:32 20.43003 -72.28349 39048 ft 496 kts 106°
2026-05-07 14:32 20.40371 -72.21544 39050 ft 497 kts 106°
2026-05-07 14:33 20.37736 -72.14738 39048 ft 497 kts 106°
2026-05-07 14:33 20.35096 -72.07930 39043 ft 497 kts 106°
2026-05-07 14:34 20.32453 -72.01123 39044 ft 497 kts 106°
2026-05-07 14:34 20.29810 -71.94324 39044 ft 497 kts 106°
2026-05-07 14:35 20.27161 -71.87521 39046 ft 497 kts 106°
2026-05-07 14:35 20.24404 -71.80756 39043 ft 499 kts 107°
2026-05-07 14:36 20.21559 -71.74017 39042 ft 499 kts 108°
2026-05-07 14:36 20.18739 -71.67271 39042 ft 498 kts 106°
2026-05-07 14:37 20.16093 -71.60470 39042 ft 497 kts 105°
2026-05-07 14:37 20.12200 -71.50252 39036 ft 496 kts 105°
2026-05-07 14:38 20.09589 -71.43458 39037 ft 496 kts 105°
2026-05-07 14:38 20.06966 -71.36668 39037 ft 496 kts 105°
2026-05-07 14:39 20.04357 -71.29930 39038 ft 496 kts 105°
2026-05-07 14:39 20.01728 -71.23150 39037 ft 496 kts 105°
2026-05-07 14:40 19.99095 -71.16366 39037 ft 496 kts 105°
2026-05-07 14:40 19.96474 -71.09622 39029 ft 496 kts 105°
2026-05-07 14:41 19.93453 -71.02992 39028 ft 506 kts 118°
2026-05-07 14:41 19.91220 -71.00064 39027 ft 515 kts 130°
2026-05-07 14:41 19.88520 -70.97541 39029 ft 519 kts 136°
2026-05-07 14:42 19.82755 -70.92885 39027 ft 522 kts 140°
2026-05-07 14:42 19.79808 -70.90631 38843 ft 521 kts 140°
2026-05-07 14:42 19.76855 -70.88383 38116 ft 524 kts 140°
2026-05-07 14:43 19.73892 -70.86119 37421 ft 525 kts 140°
2026-05-07 14:43 19.70940 -70.83849 36826 ft 523 kts 140°
2026-05-07 14:43 19.68039 -70.81607 36252 ft 522 kts 140°
2026-05-07 14:43 19.65115 -70.79338 35638 ft 521 kts 140°
2026-05-07 14:44 19.62193 -70.77067 35013 ft 520 kts 140°
2026-05-07 14:44 19.59270 -70.74791 34224 ft 523 kts 140°
2026-05-07 14:44 19.56325 -70.72497 33197 ft 528 kts 140°
2026-05-07 14:44 19.53353 -70.70182 32139 ft 533 kts 141°
2026-05-07 14:45 19.50353 -70.67850 31076 ft 537 kts 141°
2026-05-07 14:45 19.47328 -70.65501 30262 ft 537 kts 142°
2026-05-07 14:45 19.44344 -70.63189 29843 ft 526 kts 142°
2026-05-07 14:45 19.41518 -70.60785 29081 ft 518 kts 132°
2026-05-07 14:46 19.39311 -70.57830 28420 ft 507 kts 121°
2026-05-07 14:46 19.37403 -70.54711 27711 ft 502 kts 119°
2026-05-07 14:46 19.35573 -70.51593 27061 ft 496 kts 119°
2026-05-07 14:46 19.33771 -70.48505 26413 ft 490 kts 119°
2026-05-07 14:47 19.31987 -70.45451 25775 ft 485 kts 119°
2026-05-07 14:47 19.30223 -70.42435 25136 ft 480 kts 120°
2026-05-07 14:47 19.28473 -70.39447 24516 ft 475 kts 120°
2026-05-07 14:47 19.26741 -70.36493 23890 ft 470 kts 120°
2026-05-07 14:48 19.25025 -70.33568 23230 ft 465 kts 120°
2026-05-07 14:48 19.23330 -70.30680 22516 ft 460 kts 120°
2026-05-07 14:48 19.21650 -70.27820 21818 ft 455 kts 120°
2026-05-07 14:48 19.19990 -70.24995 21123 ft 450 kts 121°
2026-05-07 14:49 19.18345 -70.22196 20440 ft 446 kts 121°
2026-05-07 14:49 19.17264 -70.20358 19985 ft 443 kts 121°
2026-05-07 14:49 19.15645 -70.17607 19368 ft 437 kts 121°
2026-05-07 14:49 19.13852 -70.15063 18979 ft 426 kts 135°
2026-05-07 14:50 19.11512 -70.13249 18737 ft 411 kts 153°
2026-05-07 14:50 19.08124 -70.11664 18443 ft 394 kts 159°
2026-05-07 14:50 19.05609 -70.10586 17955 ft 388 kts 159°
2026-05-07 14:50 19.03920 -70.09861 17550 ft 387 kts 159°
2026-05-07 14:51 19.01444 -70.08787 17065 ft 382 kts 159°
2026-05-07 14:51 18.98998 -70.07717 16518 ft 379 kts 158°
2026-05-07 14:51 18.96579 -70.06653 16035 ft 374 kts 158°
2026-05-07 14:51 18.94194 -70.05600 15518 ft 371 kts 158°
2026-05-07 14:52 18.91826 -70.04554 15032 ft 367 kts 158°
2026-05-07 14:52 18.89475 -70.03514 14457 ft 366 kts 158°
2026-05-07 14:52 18.87180 -70.02499 13907 ft 364 kts 157°
2026-05-07 14:52 18.84822 -70.01457 13562 ft 354 kts 157°
2026-05-07 14:53 18.82619 -70.00482 13354 ft 341 kts 157°
2026-05-07 14:53 18.80451 -69.99523 13126 ft 325 kts 157°
2026-05-07 14:53 18.78410 -69.98620 12606 ft 313 kts 157°
2026-05-07 14:53 18.76408 -69.97735 11906 ft 311 kts 157°
2026-05-07 14:54 18.74458 -69.96874 11422 ft 305 kts 157°
2026-05-07 14:54 18.72511 -69.96013 11090 ft 301 kts 157°
2026-05-07 14:54 18.70591 -69.95165 10788 ft 298 kts 157°
2026-05-07 14:54 18.68687 -69.94324 10496 ft 296 kts 158°
2026-05-07 14:55 18.66796 -69.93489 10191 ft 293 kts 157°
2026-05-07 14:55 18.64920 -69.92661 9813 ft 292 kts 157°
2026-05-07 14:55 18.63008 -69.91818 9228 ft 294 kts 157°
2026-05-07 14:55 18.61206 -69.90837 8491 ft 290 kts 142°
2026-05-07 14:56 18.59982 -69.89226 7761 ft 286 kts 112°
2026-05-07 14:56 18.59632 -69.87181 7029 ft 284 kts 91°
2026-05-07 14:56 18.59670 -69.85128 6403 ft 277 kts 89°
2026-05-07 14:56 18.59821 -69.83121 5710 ft 274 kts 78°
2026-05-07 14:57 18.60606 -69.81310 5007 ft 273 kts 56°
2026-05-07 14:57 18.61776 -69.79733 4300 ft 273 kts 51°
2026-05-07 14:57 18.62997 -69.78208 3608 ft 271 kts 51°
2026-05-07 14:57 18.64217 -69.76701 2894 ft 269 kts 52°
2026-05-07 14:58 18.65227 -69.75063 2228 ft 264 kts 67°
2026-05-07 14:58 18.65692 -69.73252 1741 ft 250 kts 88°
2026-05-07 14:58 18.65471 -69.71514 1470 ft 230 kts 111°
2026-05-07 14:58 18.64654 -69.70132 1494 ft 216 kts 136°
2026-05-07 14:59 18.63428 -69.69379 1809 ft 202 kts 167°
2026-05-07 14:59 18.62055 -69.69487 2030 ft 201 kts 200°
2026-05-07 14:59 18.61074 -69.70436 2034 ft 191 kts 237°
2026-05-07 14:59 18.60301 -69.71546 2018 ft 187 kts 215°
2026-05-07 15:00 18.59129 -69.71869 1936 ft 169 kts 178°
2026-05-07 15:00 18.58034 -69.72155 1941 ft 163 kts 199°
2026-05-07 15:00 18.57029 -69.72621 1702 ft 149 kts 194°
2026-05-07 15:00 18.56131 -69.72419 1911 ft 134 kts 159°
2026-05-07 15:01 18.55280 -69.72040 2033 ft 133 kts 155°
2026-05-07 15:01 18.54459 -69.71616 2086 ft 130 kts 153°
2026-05-07 15:01 18.53645 -69.71183 2141 ft 133 kts 152°
2026-05-07 15:01 18.52822 -69.70741 2016 ft 132 kts 154°
2026-05-07 15:02 18.51973 -69.70379 1825 ft 131 kts 161°
2026-05-07 15:02 18.51105 -69.70095 1598 ft 130 kts 161°
2026-05-07 15:02 18.50252 -69.69792 1336 ft 129 kts 161°
2026-05-07 15:02 18.49406 -69.69497 1117 ft 128 kts 158°
2026-05-07 15:03 18.48578 -69.69155 966 ft 129 kts 158°
2026-05-07 15:03 18.47727 -69.68847 833 ft 129 kts 161°
2026-05-07 15:03 18.46877 -69.68534 695 ft 129 kts 159°
2026-05-07 15:03 18.46033 -69.68228 524 ft 129 kts 162°
2026-05-07 15:04 18.45192 -69.67916 296 ft 126 kts 160°
2026-05-07 15:04 18.44384 -69.67605 144 ft 126 kts 160°
2026-05-07 15:04 18.43584 -69.67315 68 ft 110 kts 161°
2026-05-07 15:04 18.42961 -69.67087 69 ft 81 kts 161°
2026-05-07 15:05 18.42502 -69.66919 67 ft 61 kts 161°
2026-05-07 15:05 18.42116 -69.66777 64 ft 56 kts 161°
2026-05-07 15:05 18.41783 -69.66654 68 ft 31 kts 159°
2026-05-07 15:05 18.41673 -69.66592 65 ft 5 kts 120°
2026-05-07 15:06 18.41662 -69.66591 67 ft 1 kts 189°
2026-05-07 15:06 18.41660 -69.66602 67 ft 2 kts 264°
2026-05-07 15:06 18.41680 -69.66616 70 ft 9 kts 331°
2026-05-07 15:06 18.41792 -69.66657 68 ft 23 kts 341°
2026-05-07 15:07 18.41951 -69.66710 62 ft 25 kts 341°
2026-05-07 15:07 18.42122 -69.66778 65 ft 27 kts 342°
2026-05-07 15:07 18.42305 -69.66844 66 ft 28 kts 339°
2026-05-07 15:07 18.42490 -69.66914 65 ft 28 kts 341°
2026-05-07 15:08 18.42677 -69.66973 62 ft 28 kts 343°
2026-05-07 15:08 18.42855 -69.67042 68 ft 21 kts 339°
2026-05-07 15:08 18.42932 -69.67099 65 ft 12 kts 285°
2026-05-07 15:08 18.42956 -69.67199 65 ft 18 kts 277°
2026-05-07 15:09 18.42964 -69.67305 60 ft 10 kts 260°
2026-05-07 15:09 18.42929 -69.67342 62 ft 5 kts 198°
2026-05-07 15:09 18.42885 -69.67337 63 ft 8 kts 178°
2026-05-07 15:09 18.42832 -69.67362 66 ft 9 kts 227°
2026-05-07 15:10 18.42831 -69.67402 66 ft 4 kts 308°
2026-05-07 15:10 18.42847 -69.67428 62 ft 5 kts 308°
2026-05-07 15:10 18.42858 -69.67442 64 ft 2 kts 310°
2026-05-07 15:10 18.42859 -69.67443 64 ft 0 kts 310°